(222506) = 2001 TN13

Discovered at Socorro on 2001-10-14 by LINEAR.

Orbit

Orbit type: Hungaria

Note: WebGL enabled browser required.

epoch2024-03-31.0
epoch JD2460400.5
perihelion date2023-01-03.48678
perihelion JD2459947.98679
argument of perihelion (°)170.56020
ascending node (°)210.25800
inclination (°)21.54902
eccentricity0.0892736
perihelion distance (AU)1.7470135
Tisserand w.r.t. Jupiter3.8
ΔV w.r.t. Earth (km/sec)10.6
semimajor axis (AU)1.9182638
mean anomaly (°)167.86990
mean daily motion (°/day)0.37097240
aphelion distance (AU)2.090
period (years)2.66
P-vector [x]0.92893625
P-vector [y]0.31119928
P-vector [z]0.20058029
Q-vector [x]-0.32066054
Q-vector [y]0.94706419
Q-vector [z]0.01569196
absolute magnitude16.9
phase slope0.15
uncertainty0
referenceE2024-H18
observations used668
oppositions13
arc length (days)8246
first opposition used2001
last opposition used2024
residual rms (arc-secs)0.71
perturbers coarse indicatorM-v
perturbers precise indicator003Ek
first observation date used2001-09-18.0
last observation date used2024-04-16.0
computer nameMPCLINUX
Minimum Orbit Intersection Distances (in AU)
for orbit epoch: 2460400.5, reference: E2024-H18
Mercury1.41228
Venus1.02575
Earth0.75322
Mars0.31251
Jupiter3.21104
Saturn7.30343
Uranus16.4335
Neptune28.0706

Observations

657 total observations over interval: 2001 09 18.38137 – 2024 03 19.483362
These data are available for download (format description).

Date (UT) J2000 RA J2000 Dec Magn Location Ref
2001 09 18.38137 02 11 57.61 +25 16 25.1 19.0   644 – Palomar Mountain/NEAT MPS 44112
2001 09 18.40318 02 11 57.58 +25 16 06.9 19.0   644 – Palomar Mountain/NEAT MPS 44112
2001 09 18.42428 02 11 57.58 +25 15 49.0 19.2   644 – Palomar Mountain/NEAT MPS 44112
2001 09 19.24450 02 11 59.90 +25 03 59.9 18.8 R 699 – Lowell Observatory-LONEOS MPS 44112
2001 09 19.26955 02 11 59.87 +25 03 37.8   699 – Lowell Observatory-LONEOS MPS 44112
2001 09 19.29454 02 11 59.79 +25 03 16.6   699 – Lowell Observatory-LONEOS MPS 44112
2001 09 19.31952 02 11 59.67 +25 02 54.5   699 – Lowell Observatory-LONEOS MPS 44112
2001 09 25.32890 02 11 22.89 +23 24 18.5 18.7   704 – Lincoln Laboratory ETS, New Mexico MPS 49545
2001 09 25.34391 02 11 22.69 +23 24 02.0 19.0   704 – Lincoln Laboratory ETS, New Mexico MPS 49545
2001 09 25.35891 02 11 22.35 +23 23 44.0 19.4   704 – Lincoln Laboratory ETS, New Mexico MPS 49545
2001 09 25.37389 02 11 22.14 +23 23 28.9 19.1   704 – Lincoln Laboratory ETS, New Mexico MPS 49545
2001 09 25.38887 02 11 21.88 +23 23 12.4 19.0   704 – Lincoln Laboratory ETS, New Mexico MPS 49545
2001 10 14.25194 02 01 24.45 +16 05 44.6 18.3   704 – Lincoln Laboratory ETS, New Mexico MPS 38329
2001 10 14.26759 02 01 23.69 +16 05 19.0 19.1   704 – Lincoln Laboratory ETS, New Mexico MPS 38329
2001 10 14.28380 02 01 22.84 +16 04 52.7 18.4   704 – Lincoln Laboratory ETS, New Mexico MPS 38329
2001 10 14.29946 02 01 22.07 +16 04 27.0 18.6   704 – Lincoln Laboratory ETS, New Mexico MPS 38329
2001 10 14.31511 02 01 21.26 +16 04 01.2 18.4   704 – Lincoln Laboratory ETS, New Mexico MPS 38329
2001 10 15.24221 02 00 38.62 +15 38 30.6 18.1   704 – Lincoln Laboratory ETS, New Mexico MPS 38329
2001 10 15.25838 02 00 37.81 +15 38 03.7 18.1   704 – Lincoln Laboratory ETS, New Mexico MPS 38329
2001 10 15.27439 02 00 37.01 +15 37 37.0 18.5   704 – Lincoln Laboratory ETS, New Mexico MPS 38329
2001 10 15.29020 02 00 36.18 +15 37 11.3 18.2   704 – Lincoln Laboratory ETS, New Mexico MPS 38329
2001 10 15.30626 02 00 35.38 +15 36 44.7 18.1   704 – Lincoln Laboratory ETS, New Mexico MPS 38329
2001 10 17.25195 01 59 03.18 +14 42 26.5 18.6   704 – Lincoln Laboratory ETS, New Mexico MPS 38329
2001 10 17.26751 01 59 02.37 +14 41 59.6 18.7   704 – Lincoln Laboratory ETS, New Mexico MPS 38329
2001 10 17.28322 01 59 01.50 +14 41 32.5 19.1   704 – Lincoln Laboratory ETS, New Mexico MPS 38329
2001 10 17.29896 01 59 00.70 +14 41 07.2 19.0   704 – Lincoln Laboratory ETS, New Mexico MPS 38329
2001 10 17.31471 01 58 59.89 +14 40 40.9 18.8   704 – Lincoln Laboratory ETS, New Mexico MPS 38329
2001 10 19.24828 01 57 26.33 +13 45 54.4 17.6   704 – Lincoln Laboratory ETS, New Mexico MPS 38329
2001 10 19.26555 01 57 25.41 +13 45 24.9 17.9   704 – Lincoln Laboratory ETS, New Mexico MPS 38329
2001 10 19.29862 01 57 23.68 +13 44 28.1 18.4   704 – Lincoln Laboratory ETS, New Mexico MPS 38329
2001 10 19.31630 01 57 22.76 +13 43 58.4 18.3   704 – Lincoln Laboratory ETS, New Mexico MPS 38329
2001 10 19.36256 01 57 20.48 +13 42 38.5 18.0   644 – Palomar Mountain/NEAT MPS 38329
2001 10 19.38373 01 57 19.36 +13 42 02.3 18.0   644 – Palomar Mountain/NEAT MPS 38329
2001 10 19.40492 01 57 18.24 +13 41 25.9 18.2   644 – Palomar Mountain/NEAT MPS 38329
2001 10 21.26548 01 55 47.10 +12 48 14.6 17.9   704 – Lincoln Laboratory ETS, New Mexico MPS 39433
2001 10 21.28209 01 55 46.20 +12 47 46.0 17.6   704 – Lincoln Laboratory ETS, New Mexico MPS 39433
2001 10 21.29973 01 55 45.26 +12 47 15.5 17.8   704 – Lincoln Laboratory ETS, New Mexico MPS 39433
2001 10 21.31616 01 55 44.40 +12 46 47.0 18.5   704 – Lincoln Laboratory ETS, New Mexico MPS 39433
2001 10 21.33279 01 55 43.49 +12 46 18.8 17.8   704 – Lincoln Laboratory ETS, New Mexico MPS 39433
2001 10 22.28733 01 54 56.62 +12 18 55.1 18.2   704 – Lincoln Laboratory ETS, New Mexico MPS 39433
2001 10 22.30559 01 54 55.69 +12 18 23.9 18.2   704 – Lincoln Laboratory ETS, New Mexico MPS 39433
2001 10 22.32244 01 54 54.77 +12 17 54.3 18.0   704 – Lincoln Laboratory ETS, New Mexico MPS 39433
2001 10 22.33931 01 54 53.85 +12 17 25.3 17.9   704 – Lincoln Laboratory ETS, New Mexico MPS 39433
2001 10 22.35601 01 54 53.05 +12 16 56.2 17.6   704 – Lincoln Laboratory ETS, New Mexico MPS 39433
2001 10 26.30497 01 51 40.35 +10 23 42.1 17.6   704 – Lincoln Laboratory ETS, New Mexico MPS 39433
2001 10 26.32147 01 51 39.50 +10 23 13.8 18.1   704 – Lincoln Laboratory ETS, New Mexico MPS 39433
2001 10 26.33827 01 51 38.63 +10 22 45.0 18.1   704 – Lincoln Laboratory ETS, New Mexico MPS 39433
2001 10 26.35476 01 51 37.69 +10 22 17.3 18.7   704 – Lincoln Laboratory ETS, New Mexico MPS 39433
2001 10 26.37124 01 51 36.94 +10 21 48.6 18.1   704 – Lincoln Laboratory ETS, New Mexico MPS 39433
2001 11 09.28107 01 42 03.52 +04 11 18.4 17.7   704 – Lincoln Laboratory ETS, New Mexico MPS 40721
2001 11 09.29537 01 42 03.07 +04 10 58.1 18.2   704 – Lincoln Laboratory ETS, New Mexico MPS 40721
2001 11 09.31110 01 42 02.54 +04 10 35.4 18.4   704 – Lincoln Laboratory ETS, New Mexico MPS 40721
2001 11 09.32578 01 42 02.11 +04 10 14.2 17.9   704 – Lincoln Laboratory ETS, New Mexico MPS 40721
2001 11 09.34071 01 42 01.61 +04 09 54.0 17.6   704 – Lincoln Laboratory ETS, New Mexico MPS 40721
2001 11 11.19525 01 41 06.29 +03 26 40.4 18.9 R 683 – Goodricke-Pigott Observatory, Tucson MPS 40721
2001 11 11.20646 01 41 06.03 +03 26 23.9 18.9 R 683 – Goodricke-Pigott Observatory, Tucson MPS 40721
2001 11 11.21984 01 41 05.62 +03 26 06.1 18.5 R 683 – Goodricke-Pigott Observatory, Tucson MPS 40721
2001 11 15.26377 01 39 26.32 +01 58 21.0 18.6   644 – Palomar Mountain/NEAT MPS 41989
2001 11 15.28463 01 39 25.81 +01 57 55.4 18.5   644 – Palomar Mountain/NEAT MPS 41989
2001 11 15.30618 01 39 25.29 +01 57 29.0 18.6   644 – Palomar Mountain/NEAT MPS 41989
2001 11 18.21998 01 38 34.53 +01 00 14.7 18.4   704 – Lincoln Laboratory ETS, New Mexico MPS 41989
2001 11 18.23488 01 38 34.25 +00 59 57.7 18.9   704 – Lincoln Laboratory ETS, New Mexico MPS 41989
2001 11 18.24979 01 38 33.98 +00 59 41.0 18.8   704 – Lincoln Laboratory ETS, New Mexico MPS 41989
2001 11 18.26468 01 38 33.74 +00 59 24.4 18.6   704 – Lincoln Laboratory ETS, New Mexico MPS 41989
2001 11 18.27960 01 38 33.47 +00 59 07.6 18.8   704 – Lincoln Laboratory ETS, New Mexico MPS 41989
2001 11 20.21319 01 38 09.74 +00 24 05.1 18.0   704 – Lincoln Laboratory ETS, New Mexico MPS 44112
2001 11 20.22814 01 38 09.59 +00 23 49.0 19.2   704 – Lincoln Laboratory ETS, New Mexico MPS 44112
2001 11 20.24367 01 38 09.35 +00 23 34.2 18.6   704 – Lincoln Laboratory ETS, New Mexico MPS 44112
2001 11 20.25827 01 38 09.16 +00 23 17.7 19.0   704 – Lincoln Laboratory ETS, New Mexico MPS 44112
2001 11 20.27284 01 38 08.95 +00 23 02.9 18.4   704 – Lincoln Laboratory ETS, New Mexico MPS 44112
2001 11 21.36350 01 37 59.29 +00 04 22.9 20.2   608 – Haleakala-AMOS MPS 46618
2001 11 21.37418 01 37 59.24 +00 04 12.0 20.3   608 – Haleakala-AMOS MPS 46618
2001 11 21.38464 01 37 59.10 +00 04 01.6 20.3   608 – Haleakala-AMOS MPS 46618
2001 12 07.14575 01 40 18.74 -03 08 13.9 18.8   704 – Lincoln Laboratory ETS, New Mexico MPS 44112
2001 12 07.16073 01 40 19.06 -03 08 21.7 19.7   704 – Lincoln Laboratory ETS, New Mexico MPS 44112
2001 12 07.17571 01 40 19.36 -03 08 28.0 20.4   704 – Lincoln Laboratory ETS, New Mexico MPS 44112
2001 12 07.19071 01 40 19.73 -03 08 34.9 19.6   704 – Lincoln Laboratory ETS, New Mexico MPS 44112
2001 12 07.20606 01 40 20.08 -03 08 42.0 19.6   704 – Lincoln Laboratory ETS, New Mexico MPS 44112
2003 05 02.33095 15 43 42.43 -06 02 33.3 19.6   704 – Lincoln Laboratory ETS, New Mexico MPS 79938
2003 05 02.34267 15 43 41.75 -06 02 19.5 19.5   704 – Lincoln Laboratory ETS, New Mexico MPS 79938
2003 05 02.36637 15 43 40.30 -06 01 52.9 18.7   704 – Lincoln Laboratory ETS, New Mexico MPS 79938
2003 05 21.19134 15 23 59.18 -00 32 07.3 19.1 R 699 – Lowell Observatory-LONEOS MPS 79938
2003 05 21.20979 15 23 57.83 -00 31 48.0   699 – Lowell Observatory-LONEOS MPS 79938
2003 05 21.22829 15 23 56.79 -00 31 31.8   699 – Lowell Observatory-LONEOS MPS 79938
2003 05 21.24673 15 23 55.50 -00 31 15.2   699 – Lowell Observatory-LONEOS MPS 79938
2003 06 02.17280 15 12 28.83 +02 05 30.5 19.8 V 691 – Steward Observatory, Kitt Peak-Spacewatch MPS 79938
2003 06 02.20038 15 12 27.37 +02 05 48.8 19.6 V 691 – Steward Observatory, Kitt Peak-Spacewatch MPS 79938
2003 06 02.22683 15 12 25.95 +02 06 05.9 19.7 V 691 – Steward Observatory, Kitt Peak-Spacewatch MPS 79938
